Regional Weather Roundup
Issued by NWS Upton, NY

Current Version | Previous Version | Text Only | Print | Product List | Glossary On
Versions: 1 2 3 4 5 6 7 8 9 10 11 12 13 14 15 16 17 18 19 20 21 22 23 24 25 26 27 28 29 30 31 32 33 34 35 36 37 38 39 40 41 42 43 44 45 46 47 48 49 50
000 ASUS41 KOKX 240705 RWROKX Regional Weather Roundup National Weather Service New York NY 200 AM EST SAT FEB 24 2018 Note: "FAIR" indicates few or no clouds below 12,000 feet with no significant weather and/or obstructions to visibility. NYZ071-072-176-178-NJZ106-104-240800- New York City Metro Area CITY SKY/WX TMP DP RH WIND PRES REMARKS Central Park MOCLDY 43 40 89 W9G21 30.18F Bronx Bot Gard N/A 43 39 87 W18 30.17R Bronx Lehman C N/A 43 39 87 W5 N/A LaGuardia Arpt MOCLDY 46 40 79 W14 30.16F Queens College N/A 43 41 93 W10 N/A Kennedy Intl CLOUDY 43 42 97 W10 30.18F Breezy Point N/A 41 N/A N/A W10G16 N/A Brooklyn Coll N/A 43 41 93 SW12 N/A Staten Island N/A 41 41 100 W9 N/A Newark/Liberty CLOUDY 43 41 93 W9 30.17F Teterboro FAIR 44 40 85 W6 30.16S $$ NYZ177-179-078>081-240800- Long Island New York CITY SKY/WX TMP DP RH WIND PRES REMARKS Jones Beach N/A 39 N/A N/A W10 N/A WCI 32 Wantagh N/A 41 41 100 SW7 N/A Hempstead N/A 43 43 100 SW8 30.18F Matinecock Pt N/A 41 N/A N/A SW14 N/A Farmingdale CLOUDY 42 41 96 SW8 30.15F MacArthur/ISP CLOUDY 41 41 100 W8 30.14F FOG Stony Brook U N/A 41 41 100 W3 N/A Shirley CLOUDY 42 42 100 W8 30.15F FOG Mt Sinai Harb N/A 41 N/A N/A W3G9 N/A Westhampton CLOUDY 42 42 100 SW7 30.15F East Hampton CLOUDY 39 38 99 W6 30.12F FOG WCI 35 Southold N/A 37 37 100 W3 N/A Montauk N/A 40 40 100 W8 30.13F WCI 34 $$ NYZ052-065-067-240800- Hudson Valley CITY SKY/WX TMP DP RH WIND PRES REMARKS White Plains FAIR 40 39 97 W7 30.13S FOG Larchmont Harb N/A 43 N/A N/A SW12 N/A Croton On Huds N/A 39 N/A N/A SE2 N/A Somers N/A 37 37 100 W3 N/A Brewster N/A 36 36 100 S2 N/A Newburgh CLOUDY 39 39 100 NW7 30.15S WCI 34 Montgomery FAIR 38 37 97 SW6 30.13S WCI 33 Otisville N/A 39 37 93 SW5 N/A Warwick N/A 39 39 100 W9 N/A WCI 33 Suffern N/A 41 39 93 S3 N/A Poughkeepsie FAIR 39 37 92 SW10 30.13F WCI 32 Albany DRIZZLE 37 34 89 VRB3 30.13R $$ NJZ001-105-106-008-010-013-015-019>022-104-240800- New Jersey CITY SKY/WX TMP DP RH WIND PRES REMARKS Newark/Liberty CLOUDY 43 41 93 W9 30.17F Teterboro FAIR 44 40 85 W6 30.16S Caldwell FAIR 42 41 96 VRB3 30.17S Somerville CLOUDY 41 41 100 VRB3 30.18S Linden CLOUDY 42 40 93 W13G18 30.18F Perth Amboy N/A 41 N/A N/A W12 N/A Sussex CLOUDY 39 39 100 SW8 30.16S WCI 33 Andover N/A 39 39 100 SW6 30.17S WCI 35 Trenton CLOUDY 44 43 96 W8 30.18F Millville CLOUDY 45 44 97 W10 30.22F Atlantic City CLOUDY 46 46 100 W10 30.21S Wrightstown NOT AVBL Toms River CLOUDY 44 44 100 W8 30.19F Belmar CLOUDY 43 43 100 W10 N/A FOG $$ PAZ047>061-062-071-240800- Eastern Pennsylvania CITY SKY/WX TMP DP RH WIND PRES REMARKS Philadelphia CLOUDY 44 43 96 W9 30.22F Allentown CLOUDY 43 40 89 W6 30.20S FOG Scranton FOG 40 40 100 SW8 30.17R VSB 1/2 WCI 34 $$ CTZ002-004>006-009-010-012-RIZ004-006-007-MAZ004-011-015-240800- Southern New England In CT CITY SKY/WX TMP DP RH WIND PRES REMARKS Bradley Intl CLOUDY 39 38 96 S5 30.09F Hartford FAIR 38 37 97 S6 30.11F WCI 33 Danbury CLOUDY 38 38 100 SW3 30.14S Wtrbury/Oxford FOG 37 37 100 VRB3 30.11F VSB 3/4 Norwalk Harbor N/A 37 N/A N/A SW9 N/A WCI 31 Bridgeport CLOUDY 38 37 97 SW6 30.15S FOG WCI 33 Meriden CLOUDY 38 37 97 SE3 30.13F New Haven CLOUDY 39 38 96 CALM 30.13F FOG Chester CLOUDY 39 39 100 W8 30.10F FOG WCI 34 Groton CLOUDY 41 39 93 W6 30.12F Willimantic MOCLDY 41 38 89 VRB3 30.10F In RI CITY SKY/WX TMP DP RH WIND PRES REMARKS Providence CLOUDY 41 40 96 W10 30.09F Block Island FOG 38 38 100 W16 30.12F VSB 1/2 WCI 29 Westerly CLOUDY 40 40 100 W9 30.12F WCI 34 In MA CITY SKY/WX TMP DP RH WIND PRES REMARKS Boston FAIR 40 38 93 W15 30.03F WCI 32 Worcester CLOUDY 37 35 92 W20G31 30.00F WCI 27 Westfield MOCLDY 37 36 96 SE5 30.08F WCI 33 Provincetown FAIR 39 39 100 W12 30.04F WCI 32 Nantucket CLOUDY 41 41 100 W18G28 30.07F $$ ANZ330-335-338-340-345-350-353-355-240800- Coastal Marine Observations STATION/POSITION TIME SKY/WX TEMP WIND PRES VSBY WAVE AIR SEA DIR/SP/G HT/PER (UTC) (F) (DEG/KT/KT) (MB) (MI) (FT/S) NY Harb Entrance 0650 41 39 270/ 6/ 10 1022.0 3/ 7 20 S Fire Island 0650 42 42 260/ 14/ 16 1021.9 4/ 7 23 SSW Montauk P 0650 41 42 260/ 17/ 19 1021.1 3/ 7 15 E Barnegat Li 0630 42 N/A 4/ 7 Hudson Canyon 0650 45 46 250/ 17/ 21 1021.5 4/ 4 Kings Point 0648 38 320/ 8/ 12 1022.3 Execution Rocks NOT AVBL Western LI Sound NOT AVBL Central LI Sound 0600 37 260/ 8/ 12 N/A 1 Robbins Reef 0642 260/ 16/ 22 1022.1 $$ >>>>>>>>>>>>>>>>>>>>>>>>>>>> KEY <<<<<<<<<<<<<<<<<<<<<<<<<<< > < > SKY/WX - Sky Condition/Present Weather < > TMP - Temperature in Fahrenheit < > DP - Dew Point in Fahrenheit < > RH - Relative Humidity in Percent < > WIND - Direction (from) and Speed in MPH < > PRES - Mean Sea Level Pressure (inches of Hg) < > WCI - Wind Chill Index < > VSB - Visibility in Miles < > HX - Heat Index < > TC - Temperature in Celsius < > VRB - Varibale Wind Direction < > < >>>>>>>>>>>>>>>>>>>>>>>>>>>> KEY <<<<<<<<<<<<<<<<<<<<<<<<<<<

USA.gov is the U.S. government's official web portal to all federal, state and local government web resources and services.